Tracking 30261 objects as of 18-Feb-2025
HD Live streaming from Space Station
objects crossing your sky now

CENTISPACE-1 S6

Track CENTISPACE-1 S6 now!
10-day predictions


NORAD ID: 54021
Int'l Code: 2022-126B
Perigee: 684.8 km
Apogee: 709.0 km
Inclination: 55.0 °
Period: 98.6 minutes
Semi major axis: 7067 km
RCS: Unknown
Launch date: October 7, 2022
Source: People's Republic of China (PRC)
Launch site: Yellow Sea Launch Area, China (YSLA)
Your satellite tracking list
Your tracking list is empty




NASA's NSSDC Master Catalog

Two Line Element Set (TLE):
1 54021U 22126B   25049.20908583  .00002881  00000-0  61898-3 0  9994
2 54021  55.0007 347.6788 0017141  66.6805 293.5990 14.61063898126225
Source of the keplerian elements: AFSPC